Time,TemperatureF,DewpointF,PressureIn,WindDirection,WindDirectionDegrees,WindSpeedMPH,WindSpeedGustMPH,Humidity,HourlyPrecipIn,Conditions,Clouds,dailyrainin,SoftwareType,DateUTC
2013-01-04 00:08:00,8.5,7.0,30.25,SW,223,2.0,5.0,92,0.00,,,0.00,weatherlink.com 1.10,2013-01-04 06:08:00,
2013-01-04 00:24:00,8.5,7.0,30.24,WSW,252,2.0,4.0,92,0.00,,,0.00,weatherlink.com 1.10,2013-01-04 06:24:00,
2013-01-04 00:39:00,9.2,7.0,30.24,WSW,248,3.0,7.0,92,0.00,,,0.00,weatherlink.com 1.10,2013-01-04 06:39:00,
2013-01-04 00:54:00,9.2,7.0,30.24,WSW,242,3.0,5.0,91,0.00,,,0.00,weatherlink.com 1.10,2013-01-04 06:54:00,
2013-01-04 01:09:00,9.4,7.0,30.24,WSW,243,4.0,7.0,91,0.00,,,0.00,weatherlink.com 1.10,2013-01-04 07:09:00,
2013-01-04 01:24:00,9.5,8.0,30.25,SW,228,1.0,7.0,92,0.00,,,0.00,weatherlink.com 1.10,2013-01-04 07:24:00,
2013-01-04 01:39:00,9.1,7.0,30.25,SW,225,2.0,4.0,92,0.00,,,0.00,weatherlink.com 1.10,2013-01-04 07:39:00,
2013-01-04 01:54:00,9.0,7.0,30.25,SW,233,4.0,6.0,92,0.00,,,0.00,weatherlink.com 1.10,2013-01-04 07:54:00,
2013-01-04 02:09:00,9.1,8.0,30.25,SW,215,1.0,6.0,93,0.00,,,0.00,weatherlink.com 1.10,2013-01-04 08:09:00,
2013-01-04 02:24:00,9.0,7.0,30.24,West,259,1.0,6.0,93,0.00,,,0.00,weatherlink.com 1.10,2013-01-04 08:24:00,
2013-01-04 02:39:00,9.1,8.0,30.25,WSW,245,1.0,6.0,93,0.00,,,0.00,weatherlink.com 1.10,2013-01-04 08:39:00,
2013-01-04 02:54:00,9.2,8.0,30.24,SW,232,4.0,5.0,94,0.00,,,0.00,weatherlink.com 1.10,2013-01-04 08:54:00,
2013-01-04 03:09:00,9.2,8.0,30.24,SW,217,2.0,7.0,93,0.00,,,0.00,weatherlink.com 1.10,2013-01-04 09:09:00,
2013-01-04 03:24:00,9.5,8.0,30.22,SW,224,5.0,8.0,94,0.00,,,0.00,weatherlink.com 1.10,2013-01-04 09:24:00,
2013-01-04 03:39:00,9.8,9.0,30.22,West,260,4.0,6.0,94,0.00,,,0.00,weatherlink.com 1.10,2013-01-04 09:39:00,
2013-01-04 03:54:00,9.7,8.0,30.22,SW,228,2.0,7.0,93,0.00,,,0.00,weatherlink.com 1.10,2013-01-04 09:54:00,
2013-01-04 04:09:00,9.4,8.0,30.21,SW,232,2.0,7.0,94,0.00,,,0.00,weatherlink.com 1.10,2013-01-04 10:09:00,
2013-01-04 04:24:00,9.2,8.0,30.21,SW,229,5.0,9.0,94,0.00,,,0.00,weatherlink.com 1.10,2013-01-04 10:24:00,
2013-01-04 04:39:00,9.2,8.0,30.20,SW,226,5.0,6.0,94,0.00,,,0.00,weatherlink.com 1.10,2013-01-04 10:39:00,
2013-01-04 04:54:00,9.4,8.0,30.20,SW,231,8.0,8.0,94,0.00,,,0.00,weatherlink.com 1.10,2013-01-04 10:54:00,
2013-01-04 05:09:00,9.6,8.0,30.21,WSW,242,4.0,8.0,94,0.00,,,0.00,weatherlink.com 1.10,2013-01-04 11:09:00,
2013-01-04 05:24:00,9.7,8.0,30.20,SW,217,2.0,5.0,94,0.00,,,0.00,weatherlink.com 1.10,2013-01-04 11:24:00,
2013-01-04 05:39:00,9.8,9.0,30.20,WSW,241,3.0,6.0,94,0.00,,,0.00,weatherlink.com 1.10,2013-01-04 11:39:00,
2013-01-04 05:54:00,10.2,9.0,30.21,SW,236,3.0,8.0,94,0.00,,,0.00,weatherlink.com 1.10,2013-01-04 11:54:00,
2013-01-04 06:09:00,10.5,9.0,30.20,WSW,250,2.0,7.0,94,0.00,,,0.00,weatherlink.com 1.10,2013-01-04 12:09:00,
2013-01-04 06:24:00,10.4,9.0,30.21,SW,229,4.0,4.0,94,0.00,,,0.00,weatherlink.com 1.10,2013-01-04 12:24:00,
2013-01-04 06:39:00,10.7,9.0,30.21,SW,231,3.0,8.0,94,0.00,,,0.00,weatherlink.com 1.10,2013-01-04 12:39:00,
2013-01-04 06:54:00,10.7,10.0,30.20,SW,233,3.0,6.0,95,0.00,,,0.00,weatherlink.com 1.10,2013-01-04 12:54:00,
2013-01-04 07:09:00,10.9,10.0,30.20,SW,228,2.0,6.0,95,0.00,,,0.00,weatherlink.com 1.10,2013-01-04 13:09:00,
2013-01-04 07:24:00,11.1,10.0,30.20,SW,214,5.0,6.0,94,0.00,,,0.00,weatherlink.com 1.10,2013-01-04 13:24:00,
2013-01-04 07:39:00,11.2,10.0,30.20,WSW,249,3.0,4.0,94,0.00,,,0.00,weatherlink.com 1.10,2013-01-04 13:39:00,
2013-01-04 07:54:00,11.8,10.0,30.20,SW,224,4.0,7.0,94,0.00,,,0.00,weatherlink.com 1.10,2013-01-04 13:54:00,
2013-01-04 08:09:00,12.5,11.0,30.21,SW,217,3.0,6.0,94,0.00,,,0.00,weatherlink.com 1.10,2013-01-04 14:09:00,
2013-01-04 08:24:00,13.4,12.0,30.21,SW,226,6.0,6.0,93,0.00,,,0.00,weatherlink.com 1.10,2013-01-04 14:24:00,
2013-01-04 08:55:00,15.9,14.0,30.21,WSW,238,8.0,8.0,92,0.00,,,0.00,weatherlink.com 1.10,2013-01-04 14:55:00,
2013-01-04 09:10:00,17.4,15.0,30.20,SW,233,4.0,8.0,90,0.00,,,0.00,weatherlink.com 1.10,2013-01-04 15:10:00,
2013-01-04 09:25:00,18.7,16.0,30.20,SW,229,8.0,10.0,89,0.00,,,0.00,weatherlink.com 1.10,2013-01-04 15:25:00,
2013-01-04 09:40:00,20.1,17.0,30.20,SW,236,9.0,10.0,88,0.00,,,0.00,weatherlink.com 1.10,2013-01-04 15:40:00,
2013-01-04 09:55:00,21.2,18.0,30.20,WSW,238,6.0,15.0,86,0.00,,,0.00,weatherlink.com 1.10,2013-01-04 15:55:00,
2013-01-04 10:10:00,22.3,19.0,30.20,West,264,6.0,13.0,85,0.00,,,0.00,weatherlink.com 1.10,2013-01-04 16:10:00,
2013-01-04 10:25:00,23.2,19.0,30.20,WSW,245,5.0,14.0,84,0.00,,,0.00,weatherlink.com 1.10,2013-01-04 16:25:00,
2013-01-04 10:40:00,24.0,20.0,30.20,West,262,11.0,15.0,83,0.00,,,0.00,weatherlink.com 1.10,2013-01-04 16:40:00,
2013-01-04 10:55:00,25.0,20.0,30.20,SW,236,9.0,16.0,82,0.00,,,0.00,weatherlink.com 1.10,2013-01-04 16:55:00,
2013-01-04 11:10:00,25.9,21.0,30.19,WSW,244,9.0,15.0,80,0.00,,,0.00,weatherlink.com 1.10,2013-01-04 17:10:00,
2013-01-04 11:25:00,26.8,21.0,30.19,SW,231,7.0,18.0,80,0.00,,,0.00,weatherlink.com 1.10,2013-01-04 17:25:00,
2013-01-04 11:40:00,27.5,22.0,30.18,SSW,212,7.0,17.0,79,0.00,,,0.00,weatherlink.com 1.10,2013-01-04 17:40:00,
2013-01-04 11:56:00,28.2,22.0,30.18,West,260,7.0,14.0,78,0.00,,,0.00,weatherlink.com 1.10,2013-01-04 17:56:00,
2013-01-04 12:10:00,29.1,23.0,30.17,SW,226,4.0,12.0,77,0.00,,,0.00,weatherlink.com 1.10,2013-01-04 18:10:00,
2013-01-04 12:26:00,29.8,23.0,30.16,WSW,243,6.0,14.0,75,0.00,,,0.00,weatherlink.com 1.10,2013-01-04 18:26:00,
2013-01-04 12:40:00,30.2,23.0,30.15,WSW,242,7.0,16.0,74,0.00,,,0.00,weatherlink.com 1.10,2013-01-04 18:40:00,
2013-01-04 12:56:00,30.9,23.0,30.14,West,266,8.0,17.0,73,0.00,,,0.00,weatherlink.com 1.10,2013-01-04 18:56:00,
2013-01-04 13:11:00,31.1,23.0,30.14,WSW,239,6.0,18.0,73,0.00,,,0.00,weatherlink.com 1.10,2013-01-04 19:11:00,
2013-01-04 13:26:00,31.0,23.0,30.14,WSW,252,6.0,16.0,73,0.00,,,0.00,weatherlink.com 1.10,2013-01-04 19:26:00,
2013-01-04 13:41:00,31.3,24.0,30.15,SW,225,6.0,15.0,73,0.00,,,0.00,weatherlink.com 1.10,2013-01-04 19:41:00,
2013-01-04 13:56:00,31.4,23.0,30.14,West,266,18.0,20.0,72,0.00,,,0.00,weatherlink.com 1.10,2013-01-04 19:56:00,
2013-01-04 14:11:00,31.3,23.0,30.15,WSW,252,6.0,21.0,72,0.00,,,0.00,weatherlink.com 1.10,2013-01-04 20:11:00,
2013-01-04 14:26:00,31.7,24.0,30.15,West,269,10.0,19.0,72,0.00,,,0.00,weatherlink.com 1.10,2013-01-04 20:26:00,
2013-01-04 14:56:00,31.9,24.0,30.16,WSW,252,6.0,16.0,72,0.00,,,0.00,weatherlink.com 1.10,2013-01-04 20:56:00,
2013-01-04 15:11:00,31.8,24.0,30.16,WNW,287,8.0,16.0,72,0.00,,,0.00,weatherlink.com 1.10,2013-01-04 21:11:00,
2013-01-04 15:26:00,31.6,24.0,30.16,WSW,255,6.0,13.0,73,0.00,,,0.00,weatherlink.com 1.10,2013-01-04 21:26:00,
2013-01-04 15:41:00,31.8,24.0,30.16,SW,231,6.0,12.0,73,0.00,,,0.00,weatherlink.com 1.10,2013-01-04 21:41:00,
2013-01-04 15:56:00,31.4,24.0,30.17,SW,226,5.0,8.0,74,0.00,,,0.00,weatherlink.com 1.10,2013-01-04 21:56:00,
2013-01-04 16:11:00,30.8,24.0,30.18,West,266,3.0,9.0,76,0.00,,,0.00,weatherlink.com 1.10,2013-01-04 22:11:00,
2013-01-04 16:26:00,30.1,24.0,30.18,WSW,238,2.0,8.0,77,0.00,,,0.00,weatherlink.com 1.10,2013-01-04 22:26:00,
2013-01-04 16:41:00,29.5,23.0,30.18,West,259,3.0,8.0,78,0.00,,,0.00,weatherlink.com 1.10,2013-01-04 22:41:00,
2013-01-04 16:56:00,28.9,23.0,30.19,West,262,4.0,7.0,79,0.00,,,0.00,weatherlink.com 1.10,2013-01-04 22:56:00,
2013-01-04 17:11:00,28.6,23.0,30.19,SW,218,3.0,6.0,80,0.00,,,0.00,weatherlink.com 1.10,2013-01-04 23:11:00,
2013-01-04 17:26:00,28.2,23.0,30.19,West,259,4.0,5.0,81,0.00,,,0.00,weatherlink.com 1.10,2013-01-04 23:26:00,
2013-01-04 17:41:00,28.1,23.0,30.19,West,259,3.0,5.0,81,0.00,,,0.00,weatherlink.com 1.10,2013-01-04 23:41:00,
2013-01-04 17:56:00,27.8,23.0,30.20,WSW,242,4.0,5.0,81,0.00,,,0.00,weatherlink.com 1.10,2013-01-04 23:56:00,
2013-01-04 18:13:00,27.7,23.0,30.20,WSW,245,1.0,6.0,81,0.00,,,0.00,weatherlink.com 1.10,2013-01-05 00:13:00,
2013-01-04 18:26:00,27.4,23.0,30.20,West,259,3.0,4.0,82,0.00,,,0.00,weatherlink.com 1.10,2013-01-05 00:26:00,
2013-01-04 18:41:00,27.2,22.0,30.20,WSW,238,3.0,4.0,82,0.00,,,0.00,weatherlink.com 1.10,2013-01-05 00:41:00,
2013-01-04 18:56:00,27.0,23.0,30.21,SW,229,3.0,3.0,83,0.00,,,0.00,weatherlink.com 1.10,2013-01-05 00:56:00,
2013-01-04 19:12:00,26.6,22.0,30.21,WSW,257,1.0,3.0,84,0.00,,,0.00,weatherlink.com 1.10,2013-01-05 01:12:00,
2013-01-04 19:26:00,26.2,22.0,30.21,SW,226,1.0,3.0,85,0.00,,,0.00,weatherlink.com 1.10,2013-01-05 01:26:00,
2013-01-04 19:41:00,25.8,22.0,30.21,SW,231,2.0,2.0,85,0.00,,,0.00,weatherlink.com 1.10,2013-01-05 01:41:00,
2013-01-04 19:56:00,24.9,21.0,30.21,SW,228,0.0,0.0,86,0.00,,,0.00,weatherlink.com 1.10,2013-01-05 01:56:00,
2013-01-04 20:11:00,23.6,21.0,30.21,SW,228,0.0,0.0,88,0.00,,,0.00,weatherlink.com 1.10,2013-01-05 02:11:00,
2013-01-04 20:28:00,23.5,21.0,30.21,SW,228,0.0,0.0,89,0.00,,,0.00,weatherlink.com 1.10,2013-01-05 02:28:00,
2013-01-04 20:41:00,22.1,19.0,30.20,SW,228,0.0,0.0,89,0.00,,,0.00,weatherlink.com 1.10,2013-01-05 02:41:00,
2013-01-04 20:56:00,22.2,20.0,30.20,SW,228,0.0,1.0,91,0.00,,,0.00,weatherlink.com 1.10,2013-01-05 02:56:00,
2013-01-04 21:11:00,22.1,20.0,30.21,SW,228,0.0,0.0,91,0.00,,,0.00,weatherlink.com 1.10,2013-01-05 03:11:00,
2013-01-04 21:26:00,21.9,20.0,30.21,SW,228,0.0,0.0,93,0.00,,,0.00,weatherlink.com 1.10,2013-01-05 03:26:00,
2013-01-04 21:41:00,21.9,20.0,30.20,SW,224,0.0,1.0,91,0.00,,,0.00,weatherlink.com 1.10,2013-01-05 03:41:00,
2013-01-04 21:56:00,21.1,19.0,30.21,SW,224,0.0,1.0,92,0.00,,,0.00,weatherlink.com 1.10,2013-01-05 03:56:00,
2013-01-04 22:11:00,21.6,20.0,30.20,SW,234,2.0,2.0,93,0.00,,,0.00,weatherlink.com 1.10,2013-01-05 04:11:00,
2013-01-04 22:26:00,21.6,20.0,30.20,West,264,1.0,2.0,92,0.00,,,0.00,weatherlink.com 1.10,2013-01-05 04:26:00,
2013-01-04 22:41:00,19.6,18.0,30.20,North,359,0.0,1.0,93,0.00,,,0.00,weatherlink.com 1.10,2013-01-05 04:41:00,
2013-01-04 22:56:00,18.5,17.0,30.19,North,360,1.0,1.0,93,0.00,,,0.00,weatherlink.com 1.10,2013-01-05 04:56:00,
2013-01-04 23:26:00,16.9,16.0,30.18,North,356,0.0,0.0,95,0.00,,,0.00,weatherlink.com 1.10,2013-01-05 05:26:00,
2013-01-04 23:41:00,16.5,16.0,30.18,North,5,0.0,2.0,96,0.00,,,0.00,weatherlink.com 1.10,2013-01-05 05:41:00,
2013-01-04 23:56:00,15.2,14.0,30.20,SW,224,2.0,3.0,94,0.00,,,0.00,weatherlink.com 1.10,2013-01-05 05:56:00,